Theta_e
312 311 310 310 311 313 317 322 325 324 323 324 324 325 326 324 323 323 323 321 321 321
312 312 310 311 310 311 314 321 324 319 316 317 319 320 320 320 321 321 320 321 320 320
310 311 311 310 310 312 313 315 315 316 314 313 314 315 316 316 316 316 315 313 314 312
310 310 310 310 310 311 312 314 315 315 315 316 317 317 317 316 316 316 314 314 314 311
309 308 308 309 310 310 311 312 314 315 316 316 315 313 314 313 313 313 312 312 313 312
308 306 306 307 309 310 311 311 313 314 314 314 312 311 310 310 309 308 308 309 310 309
307 306 306 307 308 309 309 309 310 312 312 312 310 309 307 305 303 302 302 303 306 308
307 305 306 307 306 306 307 308 309 310 310 309 309 308 304 302 299 299 298 299 301 303
308 306 306 306 305 305 305 304 305 306 307 307 308 301 302 300 296 295 295 295 295 298
310 307 306 306 306 303 301 301 301 302 304 304 303 298 298 299 294 292 290 290 291 294
310 306 306 305 304 301 300 299 298 299 300 302 303 298 297 297 292 290 290 290 289 290
311 307 306 305 303 302 300 299 299 299 299 301 301 298 297 297 294 293 293 295 295 291
313 309 306 305 304 304 301 300 300 299 299 300 301 296 296 299 300 297 298 298 298 299
315 311 308 306 305 306 304 302 300 299 298 298 298 298 296 297 302 301 299 298 298 298
Wind_Speed
6 3 3 3 3 2 3 3 3 5 5 6 6 5 6 3 4 5 6 8 5 6
5 5 4 4 4 3 3 2 6 3 5 4 6 6 6 4 5 4 5 6 6 6
4 5 3 4 6 6 4 4 3 6 7 7 7 7 7 6 5 7 4 4 7 5
4 3 3 5 4 5 5 6 7 7 7 9 8 7 10 8 7 8 6 5 7 7
5 3 4 4 4 4 7 6 7 7 8 8 9 7 9 8 6 8 8 7 8 7
4 5 3 3 4 5 7 6 6 7 7 7 7 9 8 8 8 7 7 6 8 6
5 5 4 3 4 6 5 7 7 7 7 7 7 7 7 8 8 7 6 6 6 6
6 5 4 5 5 6 6 6 6 8 6 6 7 5 7 7 7 7 6 5 5 4
6 6 5 5 6 6 6 6 6 6 7 6 4 8 10 9 7 5 6 6 4 4
6 5 5 6 6 6 6 5 6 6 6 6 5 7 8 9 6 6 6 6 5 3
6 6 6 6 7 5 4 5 5 5 5 6 5 9 10 9 7 5 5 5 5 4
7 7 6 7 7 4 5 4 4 4 6 6 5 9 10 9 6 5 5 4 3 3
9 8 8 7 7 3 3 3 3 3 4 5 6 8 9 6 3 3 3 3 4 4
11 11 9 8 5 5 5 5 5 5 5 6 6 6 8 9 5 4 4 4 5 5
Wind_Direction
128 109 59 78 91 103 104 102 99 103 143 170 196 168 138 131 131 147 144 140 115 124
130 121 115 72 74 92 106 85 106 91 103 105 113 127 124 150 140 149 133 136 127 132
132 129 124 99 74 77 92 108 93 79 83 73 68 86 96 88 85 89 63 94 105 98
126 114 110 104 97 88 80 94 88 78 76 81 81 79 79 72 85 90 94 90 110 104
132 123 114 115 101 87 87 75 95 79 76 75 73 73 92 88 76 97 90 96 97 108
146 135 129 137 131 106 99 91 91 95 94 92 80 76 65 85 80 76 77 79 104 115
167 164 156 151 132 111 110 102 94 90 99 103 97 91 89 87 78 70 69 72 87 105
168 157 147 136 129 121 117 113 111 110 93 92 110 124 116 107 117 120 108 84 77 72
153 149 152 130 128 120 121 125 120 115 125 123 124 135 124 131 131 125 124 124 99 103
160 156 151 135 130 130 132 121 130 138 143 144 135 144 137 126 127 136 144 149 151 132
163 162 149 143 142 130 129 144 147 154 155 151 167 166 152 135 137 142 166 171 173 157
168 161 164 165 165 163 150 163 175 176 169 179 189 179 170 147 147 164 191 186 178 158
171 167 177 172 170 159 159 181 171 199 212 209 209 199 186 163 140 189 232 256 251 218
178 176 182 171 164 164 167 158 190 206 222 227 220 225 204 198 178 196 207 226 233 224